RYR830 LPMA-LPPR

Flight info

Callsign RYR830
Flight time N/A
Altitude 36000
Route DEGUN DCT VABEM DCT ASMAR DCT DIRMA DCT ASMOV
Aircraft B738/M-SDE2E3FGHIRWXY/LB1

Departure

Time 2026-05-07 12:00
Airport Cristiano Ronaldo International Airport (LPMA)

Arrival

Time N/A
Airport Francisco de Sá Carneiro Airport (LPPR)
Time Latitude Longitude Altitude Speed Heading
2026-05-07 11:39 32.69414 -16.77594 175 ft 0 kts 138°
2026-05-07 11:50 32.69419 -16.77600 175 ft 4 kts 138°
2026-05-07 11:50 32.69439 -16.77621 175 ft 4 kts 148°
2026-05-07 11:50 32.69462 -16.77631 175 ft 4 kts 187°
2026-05-07 11:50 32.69482 -16.77621 175 ft 1 kts 226°
2026-05-07 11:52 32.69477 -16.77627 175 ft 3 kts 226°
2026-05-07 11:53 32.69448 -16.77663 175 ft 9 kts 226°
2026-05-07 11:53 32.69387 -16.77738 175 ft 16 kts 227°
2026-05-07 11:53 32.69313 -16.77829 175 ft 15 kts 226°
2026-05-07 11:53 32.69288 -16.77884 175 ft 0 kts 271°
2026-05-07 11:57 32.69288 -16.77885 175 ft 1 kts 271°
2026-05-07 11:57 32.69287 -16.77943 175 ft 13 kts 266°
2026-05-07 11:57 32.69247 -16.78079 175 ft 23 kts 229°
2026-05-07 11:57 32.69112 -16.78237 175 ft 28 kts 224°
2026-05-07 11:58 32.69018 -16.78347 175 ft 17 kts 224°
2026-05-07 11:58 32.68905 -16.78410 175 ft 15 kts 213°
2026-05-07 11:58 32.68904 -16.78459 175 ft 7 kts 320°
2026-05-07 11:58 32.68933 -16.78450 175 ft 0 kts 49°
2026-05-07 11:59 32.68941 -16.78439 175 ft 15 kts 49°
2026-05-07 11:59 32.69219 -16.78111 175 ft 96 kts 45°
2026-05-07 11:59 32.69861 -16.77366 230 ft 155 kts 44°
2026-05-07 12:00 32.70641 -16.76405 939 ft 165 kts 47°
2026-05-07 12:00 32.71345 -16.75309 1752 ft 173 kts 70°
2026-05-07 12:00 32.71290 -16.73865 2307 ft 193 kts 113°
2026-05-07 12:00 32.70687 -16.72297 2625 ft 224 kts 115°
2026-05-07 12:01 32.70027 -16.70525 3035 ft 242 kts 114°
2026-05-07 12:01 32.69363 -16.68658 3694 ft 248 kts 112°
2026-05-07 12:01 32.68711 -16.66744 4472 ft 251 kts 112°
2026-05-07 12:01 32.68078 -16.64823 5132 ft 256 kts 112°
2026-05-07 12:02 32.67441 -16.62839 5840 ft 258 kts 112°
2026-05-07 12:02 32.66795 -16.60808 6371 ft 272 kts 112°
2026-05-07 12:02 32.66115 -16.58661 6951 ft 284 kts 112°
2026-05-07 12:02 32.65537 -16.56396 7802 ft 290 kts 96°
2026-05-07 12:03 32.65817 -16.54029 8665 ft 294 kts 65°
2026-05-07 12:03 32.66979 -16.52038 9549 ft 296 kts 44°
2026-05-07 12:03 32.68450 -16.50301 10357 ft 302 kts 41°
2026-05-07 12:03 32.70035 -16.48525 10661 ft 327 kts 40°
2026-05-07 12:04 32.71756 -16.46618 11038 ft 346 kts 41°
2026-05-07 12:04 32.73540 -16.44632 11691 ft 356 kts 41°
2026-05-07 12:04 32.75356 -16.42591 12445 ft 362 kts 41°
2026-05-07 12:04 32.77179 -16.40530 13183 ft 369 kts 41°
2026-05-07 12:05 32.79056 -16.38398 13902 ft 377 kts 41°
2026-05-07 12:05 32.80965 -16.36221 14540 ft 384 kts 41°
2026-05-07 12:05 32.82905 -16.34004 15210 ft 390 kts 41°
2026-05-07 12:05 32.84875 -16.31750 15880 ft 395 kts 41°
2026-05-07 12:06 32.86870 -16.29465 16555 ft 401 kts 41°
2026-05-07 12:06 32.88895 -16.27143 17197 ft 408 kts 41°
2026-05-07 12:06 32.90956 -16.24779 17807 ft 415 kts 41°
2026-05-07 12:06 32.93051 -16.22374 18450 ft 421 kts 41°
2026-05-07 12:07 32.95167 -16.19942 19042 ft 424 kts 41°
2026-05-07 12:07 32.97297 -16.17493 19666 ft 428 kts 41°
2026-05-07 12:07 32.99444 -16.15021 20272 ft 431 kts 41°
2026-05-07 12:07 33.01613 -16.12524 20862 ft 435 kts 41°
2026-05-07 12:08 33.03801 -16.10003 21436 ft 439 kts 41°
2026-05-07 12:08 33.06009 -16.07457 22008 ft 443 kts 41°
2026-05-07 12:08 33.08235 -16.04889 22562 ft 447 kts 41°
2026-05-07 12:08 33.10456 -16.02325 23105 ft 451 kts 41°
2026-05-07 12:09 33.12726 -15.99701 23649 ft 455 kts 41°
2026-05-07 12:09 33.15015 -15.97054 24107 ft 458 kts 41°
2026-05-07 12:09 33.17310 -15.94397 24574 ft 461 kts 41°
2026-05-07 12:09 33.19618 -15.91724 25070 ft 463 kts 41°
2026-05-07 12:10 33.21941 -15.89031 25531 ft 466 kts 41°
2026-05-07 12:10 33.24275 -15.86322 25941 ft 470 kts 41°
2026-05-07 12:10 33.26629 -15.83589 26340 ft 474 kts 41°
2026-05-07 12:10 33.29003 -15.80831 26748 ft 477 kts 41°
2026-05-07 12:11 33.31391 -15.78054 27156 ft 480 kts 41°
2026-05-07 12:11 33.33789 -15.75262 27561 ft 484 kts 41°
2026-05-07 12:11 33.36208 -15.72443 27954 ft 487 kts 41°
2026-05-07 12:11 33.38613 -15.69640 28330 ft 490 kts 41°
2026-05-07 12:12 33.41066 -15.66782 28705 ft 493 kts 41°
2026-05-07 12:12 33.43713 -15.64190 29028 ft 492 kts 30°
2026-05-07 12:12 33.46611 -15.62022 29520 ft 489 kts 26°
2026-05-07 12:12 33.49567 -15.59977 29910 ft 492 kts 25°
2026-05-07 12:13 33.52564 -15.57954 30154 ft 497 kts 25°
2026-05-07 12:13 33.55585 -15.55905 30414 ft 500 kts 25°
2026-05-07 12:13 33.58606 -15.53819 30760 ft 501 kts 26°
2026-05-07 12:13 33.61618 -15.51705 31102 ft 503 kts 26°
2026-05-07 12:14 33.64632 -15.49561 31396 ft 505 kts 26°
2026-05-07 12:14 33.67658 -15.47392 31664 ft 507 kts 27°
2026-05-07 12:14 33.70690 -15.45208 31928 ft 510 kts 27°
2026-05-07 12:14 33.73739 -15.43009 32223 ft 511 kts 27°
2026-05-07 12:15 33.76749 -15.40836 32645 ft 510 kts 27°
2026-05-07 12:15 33.79788 -15.38641 33004 ft 510 kts 27°
2026-05-07 12:15 33.82823 -15.36449 33384 ft 509 kts 27°
2026-05-07 12:15 33.85858 -15.34257 33790 ft 507 kts 27°
2026-05-07 12:16 33.88877 -15.32075 34173 ft 505 kts 26°
2026-05-07 12:16 33.91889 -15.29898 34474 ft 505 kts 26°
2026-05-07 12:16 33.94905 -15.27717 34745 ft 505 kts 26°
2026-05-07 12:16 33.97924 -15.25532 35034 ft 505 kts 26°
2026-05-07 12:17 34.00933 -15.23352 35338 ft 504 kts 26°
2026-05-07 12:17 34.03937 -15.21172 35648 ft 504 kts 26°
2026-05-07 12:17 34.06937 -15.18995 35907 ft 504 kts 26°
2026-05-07 12:17 34.09946 -15.16809 36164 ft 504 kts 26°
2026-05-07 12:18 34.12909 -15.14655 36450 ft 503 kts 26°
2026-05-07 12:18 34.15908 -15.12472 36742 ft 503 kts 25°
2026-05-07 12:18 34.18899 -15.10293 37009 ft 502 kts 25°
2026-05-07 12:18 34.21890 -15.08112 37265 ft 502 kts 25°
2026-05-07 12:19 34.24882 -15.05929 37529 ft 502 kts 25°
2026-05-07 12:19 34.27871 -15.03747 37797 ft 501 kts 25°
2026-05-07 12:19 34.30849 -15.01570 38057 ft 500 kts 25°
2026-05-07 12:19 34.33828 -14.99391 38377 ft 499 kts 25°
2026-05-07 12:20 34.36794 -14.97219 38654 ft 498 kts 25°
2026-05-07 12:20 34.39756 -14.95049 38888 ft 497 kts 25°
2026-05-07 12:20 34.42712 -14.92881 39028 ft 496 kts 25°
2026-05-07 12:21 34.48621 -14.88543 39033 ft 496 kts 25°
2026-05-07 12:21 34.54479 -14.84235 39041 ft 495 kts 25°
2026-05-07 12:22 34.60363 -14.79902 39074 ft 495 kts 25°
2026-05-07 12:22 34.66260 -14.75551 39044 ft 495 kts 25°
2026-05-07 12:23 34.72146 -14.71200 39036 ft 495 kts 25°
2026-05-07 12:23 34.78033 -14.66841 39033 ft 495 kts 25°
2026-05-07 12:24 34.83885 -14.62501 39028 ft 495 kts 25°
2026-05-07 12:24 34.89768 -14.58131 39041 ft 495 kts 26°
2026-05-07 12:25 34.95652 -14.53752 39031 ft 495 kts 26°
2026-05-07 12:25 35.01530 -14.49371 39024 ft 495 kts 26°
2026-05-07 12:26 35.07416 -14.44975 39024 ft 495 kts 26°
2026-05-07 12:26 35.13251 -14.40611 39026 ft 495 kts 26°
2026-05-07 12:27 35.19128 -14.36208 39026 ft 495 kts 26°
2026-05-07 12:27 35.24999 -14.31801 39019 ft 495 kts 26°
2026-05-07 12:28 35.30879 -14.27381 39025 ft 495 kts 26°
2026-05-07 12:28 35.36747 -14.22961 39024 ft 495 kts 26°
2026-05-07 12:29 35.42586 -14.18556 39035 ft 495 kts 26°
2026-05-07 12:29 35.48456 -14.14120 39022 ft 495 kts 26°
2026-05-07 12:30 35.54320 -14.09681 39013 ft 495 kts 26°
2026-05-07 12:30 35.60185 -14.05233 39016 ft 495 kts 26°
2026-05-07 12:31 35.66044 -14.00782 39018 ft 495 kts 26°
2026-05-07 12:31 35.71864 -13.96353 39021 ft 495 kts 26°
2026-05-07 12:32 35.77721 -13.91888 39017 ft 495 kts 26°
2026-05-07 12:32 35.83578 -13.87415 39009 ft 495 kts 26°
2026-05-07 12:33 35.92352 -13.80699 39012 ft 494 kts 26°
2026-05-07 12:33 35.98149 -13.76252 39019 ft 494 kts 26°
2026-05-07 12:34 36.03986 -13.71767 39012 ft 494 kts 26°
2026-05-07 12:34 36.09815 -13.67280 39006 ft 493 kts 26°
2026-05-07 12:35 36.15630 -13.62796 39005 ft 492 kts 26°
2026-05-07 12:35 36.21400 -13.58339 39016 ft 492 kts 26°
2026-05-07 12:36 36.27205 -13.53847 39011 ft 492 kts 26°
2026-05-07 12:36 36.33007 -13.49348 38996 ft 492 kts 26°
2026-05-07 12:37 36.38800 -13.44849 38999 ft 491 kts 26°
2026-05-07 12:37 36.44558 -13.40369 39000 ft 491 kts 26°
2026-05-07 12:38 36.50352 -13.35853 39012 ft 492 kts 27°
2026-05-07 12:38 36.56186 -13.31410 38997 ft 489 kts 22°
2026-05-07 12:39 36.62283 -13.27732 39006 ft 486 kts 18°
2026-05-07 12:39 36.68402 -13.24276 38999 ft 487 kts 18°
2026-05-07 12:40 36.74562 -13.20738 39026 ft 488 kts 19°
2026-05-07 12:40 36.80712 -13.17132 39009 ft 489 kts 19°
2026-05-07 12:41 36.86860 -13.13494 38995 ft 489 kts 19°
2026-05-07 12:41 36.92966 -13.09872 38991 ft 489 kts 19°
2026-05-07 12:42 36.99105 -13.06228 38995 ft 488 kts 19°
2026-05-07 12:42 37.05241 -13.02582 38996 ft 488 kts 20°
2026-05-07 12:43 37.11368 -12.98935 38989 ft 487 kts 20°
2026-05-07 12:43 37.17477 -12.95291 38990 ft 486 kts 20°
2026-05-07 12:44 37.23531 -12.91674 38987 ft 484 kts 20°
2026-05-07 12:44 37.29612 -12.88035 38996 ft 484 kts 20°
2026-05-07 12:45 37.35680 -12.84397 38987 ft 483 kts 20°
2026-05-07 12:45 37.41746 -12.80753 38989 ft 483 kts 20°
2026-05-07 12:46 37.47761 -12.77134 38983 ft 482 kts 20°
2026-05-07 12:46 37.53816 -12.73484 38990 ft 483 kts 20°
2026-05-07 12:47 37.59878 -12.69824 38987 ft 483 kts 20°
2026-05-07 12:47 37.65945 -12.66153 38985 ft 484 kts 20°
2026-05-07 12:48 37.71976 -12.62498 38983 ft 485 kts 20°
2026-05-07 12:48 37.78059 -12.58804 38981 ft 485 kts 20°
2026-05-07 12:49 37.84149 -12.55100 38980 ft 486 kts 20°
2026-05-07 12:49 37.90250 -12.51381 38979 ft 487 kts 20°
2026-05-07 12:50 37.96310 -12.47681 38978 ft 487 kts 20°
2026-05-07 12:50 38.02417 -12.43945 38987 ft 488 kts 20°
2026-05-07 12:51 38.08526 -12.40201 38974 ft 488 kts 20°
2026-05-07 12:51 38.14637 -12.36449 38973 ft 488 kts 20°
2026-05-07 12:52 38.20700 -12.32719 38974 ft 487 kts 20°
2026-05-07 12:52 38.26801 -12.28958 38987 ft 487 kts 20°
2026-05-07 12:53 38.32901 -12.25192 38981 ft 487 kts 20°
2026-05-07 12:53 38.38999 -12.21420 38971 ft 487 kts 20°
2026-05-07 12:54 38.45091 -12.17644 38964 ft 487 kts 20°
2026-05-07 12:54 38.51143 -12.13886 38979 ft 487 kts 20°
2026-05-07 12:55 38.57233 -12.10097 38962 ft 487 kts 20°
2026-05-07 12:55 38.63317 -12.06304 38964 ft 486 kts 20°
2026-05-07 12:56 38.69389 -12.02512 38969 ft 486 kts 20°
2026-05-07 12:56 38.75417 -11.98741 38972 ft 485 kts 20°
2026-05-07 12:57 38.81483 -11.94939 38962 ft 485 kts 20°
2026-05-07 12:57 38.87538 -11.91135 38964 ft 484 kts 20°
2026-05-07 12:58 38.93584 -11.87331 38960 ft 484 kts 20°
2026-05-07 12:58 38.99585 -11.83547 38975 ft 483 kts 20°
2026-05-07 12:59 39.05621 -11.79734 38957 ft 483 kts 20°
2026-05-07 12:59 39.11658 -11.75914 38958 ft 483 kts 20°
2026-05-07 13:00 39.17682 -11.72095 38959 ft 483 kts 20°
2026-05-07 13:00 39.23701 -11.68269 38981 ft 482 kts 21°
2026-05-07 13:01 39.29680 -11.64463 38965 ft 482 kts 21°
2026-05-07 13:01 39.35660 -11.60547 38950 ft 485 kts 27°
2026-05-07 13:02 39.40908 -11.54979 38957 ft 493 kts 43°
2026-05-07 13:02 39.44790 -11.49580 38949 ft 493 kts 44°
2026-05-07 13:03 39.50178 -11.41980 38957 ft 492 kts 44°
2026-05-07 13:03 39.54082 -11.36542 38950 ft 492 kts 44°
2026-05-07 13:04 39.58720 -11.30128 38948 ft 490 kts 43°
2026-05-07 13:04 39.63384 -11.23683 38951 ft 490 kts 43°
2026-05-07 13:05 39.68791 -11.16191 38951 ft 489 kts 43°
2026-05-07 13:05 39.72681 -11.10787 38969 ft 488 kts 43°
2026-05-07 13:06 39.77277 -11.04387 38949 ft 484 kts 44°
2026-05-07 13:06 39.79540 -11.01226 38924 ft 470 kts 43°
2026-05-07 13:06 39.81731 -10.98159 38924 ft 456 kts 43°
2026-05-07 13:07 39.86009 -10.92176 38952 ft 452 kts 43°
2026-05-07 13:07 39.90324 -10.86145 38959 ft 459 kts 43°
2026-05-07 13:08 39.94671 -10.80052 38951 ft 463 kts 43°
2026-05-07 13:08 39.99058 -10.73880 38962 ft 463 kts 43°
2026-05-07 13:09 40.03371 -10.67794 38923 ft 451 kts 43°
2026-05-07 13:09 40.07627 -10.61783 38944 ft 451 kts 43°
2026-05-07 13:10 40.11860 -10.55798 38949 ft 452 kts 43°
2026-05-07 13:10 40.16119 -10.49762 38940 ft 452 kts 43°
2026-05-07 13:11 40.20383 -10.43705 38936 ft 453 kts 43°
2026-05-07 13:11 40.24648 -10.37635 38934 ft 453 kts 43°
2026-05-07 13:12 40.28877 -10.31603 38936 ft 453 kts 43°
2026-05-07 13:12 40.33133 -10.25520 38928 ft 453 kts 43°
2026-05-07 13:13 40.37386 -10.19430 38930 ft 452 kts 43°
2026-05-07 13:13 40.41627 -10.13346 38931 ft 452 kts 43°
2026-05-07 13:14 40.45831 -10.07301 38920 ft 451 kts 43°
2026-05-07 13:14 40.50050 -10.01223 38936 ft 450 kts 44°
2026-05-07 13:15 40.54258 -9.95149 38918 ft 448 kts 44°
2026-05-07 13:15 40.58443 -9.89095 38918 ft 446 kts 44°
2026-05-07 13:16 40.62608 -9.83058 38925 ft 445 kts 44°
2026-05-07 13:16 40.66726 -9.77078 38917 ft 443 kts 44°
2026-05-07 13:17 40.70853 -9.71072 38909 ft 441 kts 44°
2026-05-07 13:17 40.74959 -9.65086 38923 ft 439 kts 44°
2026-05-07 13:18 40.79045 -9.59117 38910 ft 438 kts 44°
2026-05-07 13:18 40.83090 -9.53197 38907 ft 437 kts 44°
2026-05-07 13:19 40.87214 -9.47331 38912 ft 434 kts 40°
2026-05-07 13:19 40.88631 -9.45475 38922 ft 434 kts 40°
2026-05-07 13:22 40.90317 -9.43303 38920 ft 433 kts 40°
2026-05-07 13:22 40.94534 -9.37826 38271 ft 424 kts 40°
2026-05-07 13:23 40.96649 -9.35046 37041 ft 434 kts 40°
2026-05-07 13:23 40.98837 -9.32195 35741 ft 448 kts 39°
2026-05-07 13:23 41.01105 -9.29289 34567 ft 457 kts 38°
2026-05-07 13:23 41.03404 -9.26354 33721 ft 458 kts 38°
2026-05-07 13:24 41.05677 -9.23440 33068 ft 450 kts 38°